Time,TemperatureF,DewpointF,PressureIn,WindDirection,WindDirectionDegrees,WindSpeedMPH,WindSpeedGustMPH,Humidity,HourlyPrecipIn,Conditions,Clouds,dailyrainin,SoftwareType,DateUTC
2013-03-05 00:00:00,42.2,17.2,30.07,WSW,241,0.0,1.0,36,0.00,,,0.00,VWS V14.01,2013-03-05 05:00:00,
2013-03-05 00:05:00,42.3,17.9,30.07,SW,227,0.0,0.0,37,0.00,,,0.00,VWS V14.01,2013-03-05 05:05:00,
2013-03-05 00:10:00,42.3,17.9,30.07,West,267,0.0,1.0,37,0.00,,,0.00,VWS V14.01,2013-03-05 05:10:00,
2013-03-05 00:15:00,42.2,17.2,30.07,West,265,0.0,1.0,36,0.00,,,0.00,VWS V14.01,2013-03-05 05:15:00,
2013-03-05 00:20:00,42.2,17.8,30.07,WSW,240,1.0,1.0,37,0.00,,,0.00,VWS V14.01,2013-03-05 05:20:00,
2013-03-05 00:25:00,42.1,17.7,30.06,SW,223,0.0,1.0,37,0.00,,,0.00,VWS V14.01,2013-03-05 05:25:00,
2013-03-05 00:30:00,42.3,17.9,30.06,SSW,213,0.0,2.0,37,0.00,,,0.00,VWS V14.01,2013-03-05 05:30:00,
2013-03-05 00:35:00,42.4,18.6,30.06,SW,218,2.0,2.0,38,0.00,,,0.00,VWS V14.01,2013-03-05 05:35:00,
2013-03-05 00:40:00,42.7,18.3,30.06,SW,223,0.0,2.0,37,0.00,,,0.00,VWS V14.01,2013-03-05 05:40:00,
2013-03-05 00:45:00,42.8,19.0,30.06,SW,224,0.0,2.0,38,0.00,,,0.00,VWS V14.01,2013-03-05 05:45:00,
2013-03-05 00:50:00,42.9,19.1,30.06,WSW,239,1.0,2.0,38,0.00,,,0.00,VWS V14.01,2013-03-05 05:50:00,
2013-03-05 00:55:00,43.1,18.6,30.07,WSW,248,0.0,2.0,37,0.00,,,0.00,VWS V14.01,2013-03-05 05:55:00,
2013-03-05 01:00:00,43.1,18.6,30.07,SW,214,0.0,2.0,37,0.00,,,0.00,VWS V14.01,2013-03-05 06:00:00,
2013-03-05 01:05:00,43.2,18.7,30.07,WSW,246,0.0,1.0,37,0.00,,,0.00,VWS V14.01,2013-03-05 06:05:00,
2013-03-05 01:10:00,43.2,19.3,30.07,WSW,242,0.0,2.0,38,0.00,,,0.00,VWS V14.01,2013-03-05 06:10:00,
2013-03-05 01:15:00,43.2,18.7,30.07,WSW,246,0.0,3.0,37,0.00,,,0.00,VWS V14.01,2013-03-05 06:15:00,
2013-03-05 01:20:00,43.2,18.7,30.07,SW,218,0.0,3.0,37,0.00,,,0.00,VWS V14.01,2013-03-05 06:20:00,
2013-03-05 01:25:00,43.3,18.8,30.07,SW,224,0.0,3.0,37,0.00,,,0.00,VWS V14.01,2013-03-05 06:25:00,
2013-03-05 01:30:00,43.3,19.4,30.07,WSW,250,0.0,3.0,38,0.00,,,0.00,VWS V14.01,2013-03-05 06:30:00,
2013-03-05 01:35:00,43.4,19.5,30.07,SW,217,0.0,3.0,38,0.00,,,0.00,VWS V14.01,2013-03-05 06:35:00,
2013-03-05 01:40:00,43.4,19.5,30.07,WSW,237,1.0,3.0,38,0.00,,,0.00,VWS V14.01,2013-03-05 06:40:00,
2013-03-05 01:45:00,43.3,19.4,30.07,WSW,249,0.0,3.0,38,0.00,,,0.00,VWS V14.01,2013-03-05 06:45:00,
2013-03-05 01:50:00,43.2,19.3,30.07,WSW,246,1.0,3.0,38,0.00,,,0.00,VWS V14.01,2013-03-05 06:50:00,
2013-03-05 01:55:00,43.1,19.2,30.07,WSW,242,0.0,3.0,38,0.00,,,0.00,VWS V14.01,2013-03-05 06:55:00,
2013-03-05 02:00:00,43.0,19.8,30.07,WSW,256,0.0,3.0,39,0.00,,,0.00,VWS V14.01,2013-03-05 07:00:00,
2013-03-05 02:05:00,42.9,19.7,30.07,WSW,256,0.0,1.0,39,0.00,,,0.00,VWS V14.01,2013-03-05 07:05:00,
2013-03-05 02:10:00,42.9,19.7,30.07,WSW,246,0.0,1.0,39,0.00,,,0.00,VWS V14.01,2013-03-05 07:10:00,
2013-03-05 02:15:00,42.8,19.6,30.07,WSW,248,0.0,1.0,39,0.00,,,0.00,VWS V14.01,2013-03-05 07:15:00,
2013-03-05 02:20:00,42.8,20.2,30.07,WSW,249,1.0,1.0,40,0.00,,,0.00,VWS V14.01,2013-03-05 07:20:00,
2013-03-05 02:25:00,42.7,20.1,30.06,WSW,237,1.0,2.0,40,0.00,,,0.00,VWS V14.01,2013-03-05 07:25:00,
2013-03-05 02:30:00,42.7,20.1,30.07,WSW,244,0.0,2.0,40,0.00,,,0.00,VWS V14.01,2013-03-05 07:30:00,
2013-03-05 02:35:00,42.6,20.0,30.07,WSW,248,3.0,4.0,40,0.00,,,0.00,VWS V14.01,2013-03-05 07:35:00,
2013-03-05 02:40:00,42.6,20.0,30.06,WSW,244,1.0,4.0,40,0.00,,,0.00,VWS V14.01,2013-03-05 07:40:00,
2013-03-05 02:45:00,42.5,20.5,30.07,West,271,0.0,4.0,41,0.00,,,0.00,VWS V14.01,2013-03-05 07:45:00,
2013-03-05 02:50:00,42.4,20.4,30.07,West,260,0.0,4.0,41,0.00,,,0.00,VWS V14.01,2013-03-05 07:50:00,
2013-03-05 02:55:00,42.4,20.4,30.07,WSW,249,0.0,4.0,41,0.00,,,0.00,VWS V14.01,2013-03-05 07:55:00,
2013-03-05 03:00:00,42.3,20.3,30.06,WSW,245,1.0,4.0,41,0.00,,,0.00,VWS V14.01,2013-03-05 08:00:00,
2013-03-05 03:05:00,42.3,20.3,30.06,WSW,246,0.0,2.0,41,0.00,,,0.00,VWS V14.01,2013-03-05 08:05:00,
2013-03-05 03:10:00,42.3,20.9,30.06,WSW,252,0.0,2.0,42,0.00,,,0.00,VWS V14.01,2013-03-05 08:10:00,
2013-03-05 03:15:00,42.2,20.2,30.06,West,267,1.0,2.0,41,0.00,,,0.00,VWS V14.01,2013-03-05 08:15:00,
2013-03-05 03:20:00,42.2,20.8,30.06,WSW,253,0.0,2.0,42,0.00,,,0.00,VWS V14.01,2013-03-05 08:20:00,
2013-03-05 03:25:00,42.1,20.7,30.06,WSW,254,2.0,2.0,42,0.00,,,0.00,VWS V14.01,2013-03-05 08:25:00,
2013-03-05 03:30:00,42.0,20.6,30.06,West,269,0.0,2.0,42,0.00,,,0.00,VWS V14.01,2013-03-05 08:30:00,
2013-03-05 03:35:00,42.1,20.7,30.06,West,275,1.0,1.0,42,0.00,,,0.00,VWS V14.01,2013-03-05 08:35:00,
2013-03-05 03:40:00,42.0,21.1,30.06,West,278,1.0,2.0,43,0.00,,,0.00,VWS V14.01,2013-03-05 08:40:00,
2013-03-05 03:45:00,41.9,21.0,30.06,WSW,246,0.0,2.0,43,0.00,,,0.00,VWS V14.01,2013-03-05 08:45:00,
2013-03-05 03:50:00,41.9,21.0,30.06,WSW,238,2.0,2.0,43,0.00,,,0.00,VWS V14.01,2013-03-05 08:50:00,
2013-03-05 03:55:00,41.9,21.0,30.06,WSW,256,1.0,2.0,43,0.00,,,0.00,VWS V14.01,2013-03-05 08:55:00,
2013-03-05 04:00:00,41.8,21.0,30.06,WSW,245,0.0,2.0,43,0.00,,,0.00,VWS V14.01,2013-03-05 09:00:00,
2013-03-05 04:05:00,41.7,21.4,30.06,WSW,254,1.0,1.0,44,0.00,,,0.00,VWS V14.01,2013-03-05 09:05:00,
2013-03-05 04:10:00,41.6,21.3,30.06,West,272,0.0,3.0,44,0.00,,,0.00,VWS V14.01,2013-03-05 09:10:00,
2013-03-05 04:15:00,41.6,21.3,30.06,WSW,251,1.0,3.0,44,0.00,,,0.00,VWS V14.01,2013-03-05 09:15:00,
2013-03-05 04:20:00,41.5,21.2,30.07,WNW,283,1.0,3.0,44,0.00,,,0.00,VWS V14.01,2013-03-05 09:20:00,
2013-03-05 04:25:00,41.5,21.2,30.07,WSW,249,0.0,3.0,44,0.00,,,0.00,VWS V14.01,2013-03-05 09:25:00,
2013-03-05 04:30:00,41.5,21.2,30.06,WSW,252,0.0,3.0,44,0.00,,,0.00,VWS V14.01,2013-03-05 09:30:00,
2013-03-05 04:35:00,41.4,21.1,30.06,WSW,238,0.0,1.0,44,0.00,,,0.00,VWS V14.01,2013-03-05 09:35:00,
2013-03-05 04:40:00,41.3,21.0,30.06,WSW,238,0.0,1.0,44,0.00,,,0.00,VWS V14.01,2013-03-05 09:40:00,
2013-03-05 04:45:00,41.2,21.0,30.07,WSW,238,0.0,1.0,44,0.00,,,0.00,VWS V14.01,2013-03-05 09:45:00,
2013-03-05 04:50:00,41.1,21.9,30.07,WSW,238,0.0,1.0,46,0.00,,,0.00,VWS V14.01,2013-03-05 09:50:00,
2013-03-05 04:55:00,41.0,21.8,30.07,WSW,238,0.0,1.0,46,0.00,,,0.00,VWS V14.01,2013-03-05 09:55:00,
2013-03-05 05:00:00,40.8,22.1,30.07,WSW,238,0.0,1.0,47,0.00,,,0.00,VWS V14.01,2013-03-05 10:00:00,
2013-03-05 05:05:00,40.6,22.0,30.07,WSW,238,0.0,0.0,47,0.00,,,0.00,VWS V14.01,2013-03-05 10:05:00,
2013-03-05 05:10:00,40.3,22.2,30.08,WSW,238,0.0,0.0,48,0.00,,,0.00,VWS V14.01,2013-03-05 10:10:00,
2013-03-05 05:15:00,39.9,21.8,30.08,WSW,238,0.0,0.0,48,0.00,,,0.00,VWS V14.01,2013-03-05 10:15:00,
2013-03-05 05:20:00,39.6,21.5,30.08,WSW,238,0.0,0.0,48,0.00,,,0.00,VWS V14.01,2013-03-05 10:20:00,
2013-03-05 05:25:00,39.3,20.8,30.07,WSW,238,0.0,0.0,47,0.00,,,0.00,VWS V14.01,2013-03-05 10:25:00,
2013-03-05 05:30:00,39.7,20.6,30.07,WSW,238,0.0,0.0,46,0.00,,,0.00,VWS V14.01,2013-03-05 10:30:00,
2013-03-05 05:35:00,40.1,21.0,30.07,WSW,238,0.0,0.0,46,0.00,,,0.00,VWS V14.01,2013-03-05 10:35:00,
2013-03-05 05:40:00,40.4,20.8,30.07,SSW,210,0.0,0.0,45,0.00,,,0.00,VWS V14.01,2013-03-05 10:40:00,
2013-03-05 05:45:00,40.6,20.9,30.07,SSW,202,0.0,1.0,45,0.00,,,0.00,VWS V14.01,2013-03-05 10:45:00,
2013-03-05 05:50:00,40.5,20.9,30.07,SSE,156,0.0,1.0,45,0.00,,,0.00,VWS V14.01,2013-03-05 10:50:00,
2013-03-05 05:55:00,40.6,20.9,30.07,SSE,156,0.0,1.0,45,0.00,,,0.00,VWS V14.01,2013-03-05 10:55:00,
2013-03-05 06:00:00,40.6,21.5,30.07,SSE,156,0.0,1.0,46,0.00,,,0.00,VWS V14.01,2013-03-05 11:00:00,
2013-03-05 06:05:00,40.6,21.5,30.07,SSE,156,0.0,0.0,46,0.00,,,0.00,VWS V14.01,2013-03-05 11:05:00,
2013-03-05 06:10:00,40.6,21.5,30.06,SSE,156,0.0,0.0,46,0.00,,,0.00,VWS V14.01,2013-03-05 11:10:00,
2013-03-05 06:15:00,40.6,21.5,30.06,SSE,156,0.0,0.0,46,0.00,,,0.00,VWS V14.01,2013-03-05 11:15:00,
2013-03-05 06:20:00,40.5,21.9,30.06,SE,141,0.0,0.0,47,0.00,,,0.00,VWS V14.01,2013-03-05 11:20:00,
2013-03-05 06:25:00,40.2,21.6,30.06,SE,141,0.0,0.0,47,0.00,,,0.00,VWS V14.01,2013-03-05 11:25:00,
2013-03-05 06:30:00,40.0,22.4,30.06,SE,140,0.0,0.0,49,0.00,,,0.00,VWS V14.01,2013-03-05 11:30:00,
2013-03-05 06:35:00,39.4,25.5,30.06,SE,140,0.0,0.0,57,0.00,,,0.00,VWS V14.01,2013-03-05 11:35:00,
2013-03-05 06:40:00,38.8,24.5,30.06,SE,140,0.0,0.0,56,0.00,,,0.00,VWS V14.01,2013-03-05 11:40:00,
2013-03-05 06:45:00,38.5,24.2,30.06,SSE,160,0.0,0.0,56,0.00,,,0.00,VWS V14.01,2013-03-05 11:45:00,
2013-03-05 06:50:00,38.1,25.1,30.06,SSE,159,0.0,0.0,59,0.00,,,0.00,VWS V14.01,2013-03-05 11:50:00,
2013-03-05 06:55:00,37.7,27.0,30.06,SSE,160,0.0,0.0,65,0.00,,,0.00,VWS V14.01,2013-03-05 11:55:00,
2013-03-05 07:00:00,37.2,26.9,30.06,SSE,160,0.0,0.0,66,0.00,,,0.00,VWS V14.01,2013-03-05 12:00:00,
2013-03-05 07:05:00,37.1,27.2,30.06,SSE,160,0.0,0.0,67,0.00,,,0.00,VWS V14.01,2013-03-05 12:05:00,
2013-03-05 07:10:00,36.8,28.0,30.05,SE,146,0.0,0.0,70,0.00,,,0.00,VWS V14.01,2013-03-05 12:10:00,
2013-03-05 07:15:00,36.8,27.6,30.05,SE,141,0.0,1.0,69,0.00,,,0.00,VWS V14.01,2013-03-05 12:15:00,
2013-03-05 07:20:00,37.1,26.8,30.05,SE,141,0.0,1.0,66,0.00,,,0.00,VWS V14.01,2013-03-05 12:20:00,
2013-03-05 07:25:00,37.3,27.0,30.05,South,170,0.0,1.0,66,0.00,,,0.00,VWS V14.01,2013-03-05 12:25:00,
2013-03-05 07:29:00,37.5,27.9,30.05,South,169,0.0,1.0,68,0.00,,,0.00,VWS V14.01,2013-03-05 12:29:00,
2013-03-05 07:34:00,37.9,28.3,30.05,SE,142,0.0,0.0,68,0.00,,,0.00,VWS V14.01,2013-03-05 12:34:00,
2013-03-05 07:39:00,38.3,27.6,30.05,South,190,0.0,1.0,65,0.00,,,0.00,VWS V14.01,2013-03-05 12:39:00,
2013-03-05 07:45:00,38.9,27.0,30.05,South,175,3.0,3.0,62,0.00,,,0.00,VWS V14.01,2013-03-05 12:45:00,
2013-03-05 07:49:00,39.8,27.1,30.04,SE,133,0.0,3.0,60,0.00,,,0.00,VWS V14.01,2013-03-05 12:49:00,
2013-03-05 07:54:00,40.4,27.2,30.04,SSE,150,0.0,3.0,59,0.00,,,0.00,VWS V14.01,2013-03-05 12:54:00,
2013-03-05 07:59:00,40.8,27.2,30.04,SSE,153,0.0,3.0,58,0.00,,,0.00,VWS V14.01,2013-03-05 12:59:00,
2013-03-05 08:04:00,41.0,27.0,30.05,SSE,157,0.0,2.0,57,0.00,,,0.00,VWS V14.01,2013-03-05 13:04:00,
2013-03-05 08:09:00,41.5,27.0,30.05,SSE,149,1.0,3.0,56,0.00,,,0.00,VWS V14.01,2013-03-05 13:09:00,
2013-03-05 08:14:00,42.2,26.8,30.05,SSE,152,2.0,3.0,54,0.00,,,0.00,VWS V14.01,2013-03-05 13:14:00,
2013-03-05 08:19:00,42.8,26.9,30.05,SE,137,2.0,5.0,53,0.00,,,0.00,VWS V14.01,2013-03-05 13:19:00,
2013-03-05 08:24:00,43.1,25.7,30.05,SSW,211,4.0,5.0,50,0.00,,,0.00,VWS V14.01,2013-03-05 13:24:00,
2013-03-05 08:29:00,43.5,26.1,30.04,SSE,163,4.0,5.0,50,0.00,,,0.00,VWS V14.01,2013-03-05 13:29:00,
2013-03-05 08:34:00,44.1,26.2,30.04,SSE,153,3.0,5.0,49,0.00,,,0.00,VWS V14.01,2013-03-05 13:34:00,
2013-03-05 08:39:00,44.5,27.0,30.03,ESE,115,1.0,5.0,50,0.00,,,0.00,VWS V14.01,2013-03-05 13:39:00,
2013-03-05 08:44:00,45.3,26.8,30.03,SSE,168,2.0,5.0,48,0.00,,,0.00,VWS V14.01,2013-03-05 13:44:00,
2013-03-05 08:49:00,46.1,27.5,30.04,SSW,207,2.0,5.0,48,0.00,,,0.00,VWS V14.01,2013-03-05 13:49:00,
2013-03-05 08:54:00,46.7,26.5,30.04,SSW,205,4.0,5.0,45,0.00,,,0.00,VWS V14.01,2013-03-05 13:54:00,
2013-03-05 08:59:00,47.1,26.9,30.04,WSW,237,2.0,5.0,45,0.00,,,0.00,VWS V14.01,2013-03-05 13:59:00,
2013-03-05 09:04:00,47.7,28.0,30.04,SSW,211,4.0,4.0,46,0.00,,,0.00,VWS V14.01,2013-03-05 14:04:00,
2013-03-05 09:09:00,47.6,27.9,30.04,SW,218,3.0,6.0,46,0.00,,,0.00,VWS V14.01,2013-03-05 14:09:00,
2013-03-05 09:14:00,47.5,28.3,30.04,SW,221,2.0,6.0,47,0.00,,,0.00,VWS V14.01,2013-03-05 14:14:00,
2013-03-05 09:19:00,47.9,28.7,30.04,WSW,238,3.0,6.0,47,0.00,,,0.00,VWS V14.01,2013-03-05 14:19:00,
2013-03-05 09:24:00,48.6,29.3,30.04,WSW,252,0.0,6.0,47,0.00,,,0.00,VWS V14.01,2013-03-05 14:24:00,
2013-03-05 09:29:00,49.9,30.0,30.04,SW,233,2.0,6.0,46,0.00,,,0.00,VWS V14.01,2013-03-05 14:29:00,
2013-03-05 09:34:00,50.4,29.9,30.04,West,269,0.0,2.0,45,0.00,,,0.00,VWS V14.01,2013-03-05 14:34:00,
2013-03-05 09:39:00,50.3,29.2,30.04,WSW,251,2.0,4.0,44,0.00,,,0.00,VWS V14.01,2013-03-05 14:39:00,
2013-03-05 09:44:00,50.1,29.6,30.03,SSW,213,1.0,4.0,45,0.00,,,0.00,VWS V14.01,2013-03-05 14:44:00,
2013-03-05 09:49:00,50.0,29.5,30.03,SSE,150,0.0,4.0,45,0.00,,,0.00,VWS V14.01,2013-03-05 14:49:00,
2013-03-05 09:54:00,49.8,29.9,30.03,SW,225,1.0,4.0,46,0.00,,,0.00,VWS V14.01,2013-03-05 14:54:00,
2013-03-05 09:59:00,49.5,29.6,30.03,SW,234,0.0,4.0,46,0.00,,,0.00,VWS V14.01,2013-03-05 14:59:00,
2013-03-05 10:04:00,49.3,29.9,30.03,WSW,244,0.0,1.0,47,0.00,,,0.00,VWS V14.01,2013-03-05 15:04:00,
2013-03-05 10:09:00,49.2,30.4,30.02,SSE,156,0.0,1.0,48,0.00,,,0.00,VWS V14.01,2013-03-05 15:09:00,
2013-03-05 10:14:00,49.1,30.3,30.02,SW,226,0.0,2.0,48,0.00,,,0.00,VWS V14.01,2013-03-05 15:14:00,
2013-03-05 10:19:00,48.8,30.5,30.02,WSW,246,1.0,2.0,49,0.00,,,0.00,VWS V14.01,2013-03-05 15:19:00,
2013-03-05 10:24:00,48.8,30.5,30.02,SW,225,1.0,3.0,49,0.00,,,0.00,VWS V14.01,2013-03-05 15:24:00,
2013-03-05 10:29:00,48.9,30.6,30.02,WSW,241,1.0,3.0,49,0.00,,,0.00,VWS V14.01,2013-03-05 15:29:00,
2013-03-05 10:34:00,49.1,31.3,30.02,WSW,238,0.0,2.0,50,0.00,,,0.00,VWS V14.01,2013-03-05 15:34:00,
2013-03-05 10:39:00,49.5,31.1,30.02,SSW,209,2.0,4.0,49,0.00,,,0.00,VWS V14.01,2013-03-05 15:39:00,
2013-03-05 10:44:00,49.6,31.2,30.01,NE,39,0.0,5.0,49,0.00,,,0.00,VWS V14.01,2013-03-05 15:44:00,
2013-03-05 10:49:00,49.9,31.5,30.01,South,183,2.0,5.0,49,0.00,,,0.00,VWS V14.01,2013-03-05 15:49:00,
2013-03-05 10:54:00,49.9,31.0,30.01,SW,217,2.0,6.0,48,0.00,,,0.00,VWS V14.01,2013-03-05 15:54:00,
2013-03-05 10:59:00,49.7,31.3,30.01,SW,230,5.0,6.0,49,0.00,,,0.00,VWS V14.01,2013-03-05 15:59:00,
2013-03-05 11:04:00,49.7,31.3,30.01,WSW,238,3.0,4.0,49,0.00,,,0.00,VWS V14.01,2013-03-05 16:04:00,
2013-03-05 11:09:00,49.8,32.4,30.01,SSW,209,2.0,4.0,51,0.00,,,0.00,VWS V14.01,2013-03-05 16:09:00,
2013-03-05 11:14:00,49.7,31.3,30.01,SW,226,1.0,6.0,49,0.00,,,0.00,VWS V14.01,2013-03-05 16:14:00,
2013-03-05 11:19:00,49.8,32.4,30.01,SW,226,1.0,6.0,51,0.00,,,0.00,VWS V14.01,2013-03-05 16:19:00,
2013-03-05 11:24:00,49.7,32.8,30.01,West,269,2.0,6.0,52,0.00,,,0.00,VWS V14.01,2013-03-05 16:24:00,
2013-03-05 11:29:00,49.2,34.2,30.02,WSW,250,2.0,10.0,56,0.00,,,0.00,VWS V14.01,2013-03-05 16:29:00,
2013-03-05 11:34:00,48.5,36.5,30.02,WSW,244,3.0,3.0,63,0.00,,,0.00,VWS V14.01,2013-03-05 16:34:00,
2013-03-05 11:39:00,47.6,36.0,30.02,WNW,288,1.0,6.0,64,0.00,,,0.00,VWS V14.01,2013-03-05 16:39:00,
2013-03-05 11:44:00,47.0,37.4,30.01,West,265,1.0,6.0,69,0.00,,,0.00,VWS V14.01,2013-03-05 16:44:00,
2013-03-05 11:49:00,46.5,38.0,30.01,WNW,296,3.0,6.0,72,0.00,,,0.00,VWS V14.01,2013-03-05 16:49:00,
2013-03-05 11:54:00,45.9,37.8,30.01,WSW,239,2.0,7.0,73,0.00,,,0.00,VWS V14.01,2013-03-05 16:54:00,
2013-03-05 11:59:00,45.7,37.9,30.01,SW,225,0.0,7.0,74,0.00,,,0.00,VWS V14.01,2013-03-05 16:59:00,
2013-03-05 12:04:00,45.4,38.6,30.01,WSW,251,1.0,3.0,77,0.00,,,0.00,VWS V14.01,2013-03-05 17:04:00,
2013-03-05 12:09:00,45.1,39.3,30.00,NW,310,4.0,4.0,80,0.00,,,0.00,VWS V14.01,2013-03-05 17:09:00,
2013-03-05 12:14:00,44.6,39.5,29.99,SE,125,0.0,4.0,82,0.01,,,0.01,VWS V14.01,2013-03-05 17:14:00,
2013-03-05 12:19:00,44.3,39.8,29.99,SW,223,0.0,4.0,84,0.01,,,0.01,VWS V14.01,2013-03-05 17:19:00,
2013-03-05 12:24:00,44.3,40.4,29.98,WSW,244,1.0,4.0,86,0.01,,,0.01,VWS V14.01,2013-03-05 17:24:00,
2013-03-05 12:29:00,44.3,40.4,29.98,WSW,254,0.0,4.0,86,0.01,,,0.01,VWS V14.01,2013-03-05 17:29:00,
2013-03-05 12:34:00,44.4,40.5,29.98,West,261,1.0,1.0,86,0.01,,,0.01,VWS V14.01,2013-03-05 17:34:00,
2013-03-05 12:39:00,44.4,40.8,29.98,WNW,292,0.0,1.0,87,0.01,,,0.01,VWS V14.01,2013-03-05 17:39:00,
2013-03-05 12:44:00,44.4,40.8,29.98,WSW,242,0.0,1.0,87,0.01,,,0.01,VWS V14.01,2013-03-05 17:44:00,
2013-03-05 12:49:00,44.2,40.9,29.98,WSW,256,1.0,2.0,88,0.01,,,0.01,VWS V14.01,2013-03-05 17:49:00,
2013-03-05 12:54:00,44.0,41.0,29.98,SW,230,0.0,3.0,89,0.02,,,0.02,VWS V14.01,2013-03-05 17:54:00,
2013-03-05 12:59:00,43.8,41.1,29.98,SW,223,1.0,3.0,90,0.03,,,0.03,VWS V14.01,2013-03-05 17:59:00,
2013-03-05 13:04:00,43.8,41.6,29.98,WSW,238,2.0,4.0,92,0.03,,,0.03,VWS V14.01,2013-03-05 18:04:00,
2013-03-05 13:09:00,43.8,41.9,29.97,SW,219,0.0,5.0,93,0.04,,,0.04,VWS V14.01,2013-03-05 18:09:00,
2013-03-05 13:14:00,43.9,41.7,29.97,SW,234,0.0,5.0,92,0.04,,,0.04,VWS V14.01,2013-03-05 18:14:00,
2013-03-05 13:19:00,43.9,42.0,29.96,SSW,209,1.0,5.0,93,0.05,,,0.05,VWS V14.01,2013-03-05 18:19:00,
2013-03-05 13:24:00,43.9,42.0,29.96,SW,226,2.0,5.0,93,0.06,,,0.06,VWS V14.01,2013-03-05 18:24:00,
2013-03-05 13:29:00,43.9,42.0,29.95,SSW,192,2.0,5.0,93,0.07,,,0.07,VWS V14.01,2013-03-05 18:29:00,
2013-03-05 13:34:00,43.8,41.9,29.95,South,188,1.0,3.0,93,0.06,,,0.07,VWS V14.01,2013-03-05 18:34:00,
2013-03-05 13:39:00,43.9,42.3,29.94,SW,229,1.0,4.0,94,0.07,,,0.08,VWS V14.01,2013-03-05 18:39:00,
2013-03-05 13:44:00,44.0,42.4,29.94,SSE,168,1.0,4.0,94,0.08,,,0.09,VWS V14.01,2013-03-05 18:44:00,
2013-03-05 13:49:00,44.0,42.4,29.94,WSW,242,4.0,7.0,94,0.09,,,0.10,VWS V14.01,2013-03-05 18:49:00,
2013-03-05 13:54:00,44.0,42.4,29.93,SSW,211,1.0,7.0,94,0.09,,,0.10,VWS V14.01,2013-03-05 18:54:00,
2013-03-05 13:59:00,44.1,42.5,29.93,SW,221,2.0,7.0,94,0.10,,,0.11,VWS V14.01,2013-03-05 18:59:00,
2013-03-05 14:04:00,44.1,42.5,29.92,SW,223,2.0,4.0,94,0.09,,,0.12,VWS V14.01,2013-03-05 19:04:00,
2013-03-05 14:09:00,44.3,42.7,29.92,SSW,209,3.0,5.0,94,0.09,,,0.12,VWS V14.01,2013-03-05 19:09:00,
2013-03-05 14:14:00,44.2,42.6,29.92,South,190,2.0,5.0,94,0.09,,,0.12,VWS V14.01,2013-03-05 19:14:00,
2013-03-05 14:19:00,44.3,42.7,29.92,SW,222,2.0,5.0,94,0.09,,,0.12,VWS V14.01,2013-03-05 19:19:00,
2013-03-05 14:24:00,44.2,42.6,29.92,SW,227,2.0,5.0,94,0.09,,,0.12,VWS V14.01,2013-03-05 19:24:00,
2013-03-05 14:29:00,44.3,42.7,29.91,SSE,148,3.0,6.0,94,0.09,,,0.12,VWS V14.01,2013-03-05 19:29:00,
2013-03-05 14:34:00,44.3,42.7,29.91,SW,225,3.0,4.0,94,0.05,,,0.12,VWS V14.01,2013-03-05 19:34:00,
2013-03-05 14:39:00,44.4,42.8,29.91,SW,221,1.0,4.0,94,0.05,,,0.12,VWS V14.01,2013-03-05 19:39:00,
2013-03-05 14:44:00,44.4,42.8,29.91,SW,222,0.0,4.0,94,0.05,,,0.12,VWS V14.01,2013-03-05 19:44:00,
2013-03-05 14:49:00,44.5,42.9,29.90,SW,218,0.0,4.0,94,0.05,,,0.12,VWS V14.01,2013-03-05 19:49:00,
2013-03-05 14:54:00,44.5,42.9,29.90,SSE,164,1.0,4.0,94,0.05,,,0.12,VWS V14.01,2013-03-05 19:54:00,
2013-03-05 14:59:00,44.5,42.9,29.90,SSW,203,1.0,5.0,94,0.05,,,0.12,VWS V14.01,2013-03-05 19:59:00,
2013-03-05 15:04:00,44.6,43.0,29.89,ESE,121,1.0,3.0,94,0.00,,,0.12,VWS V14.01,2013-03-05 20:04:00,
2013-03-05 15:09:00,44.7,43.1,29.89,SW,228,0.0,3.0,94,0.00,,,0.12,VWS V14.01,2013-03-05 20:09:00,
2013-03-05 15:14:00,44.7,43.1,29.89,SSE,163,2.0,5.0,94,0.00,,,0.12,VWS V14.01,2013-03-05 20:14:00,
2013-03-05 15:19:00,44.7,43.1,29.89,West,259,0.0,5.0,94,0.00,,,0.12,VWS V14.01,2013-03-05 20:19:00,
2013-03-05 15:24:00,44.8,43.5,29.89,SSE,168,1.0,5.0,95,0.00,,,0.12,VWS V14.01,2013-03-05 20:24:00,
2013-03-05 15:29:00,44.8,43.2,29.89,South,173,1.0,5.0,94,0.00,,,0.12,VWS V14.01,2013-03-05 20:29:00,
2013-03-05 15:34:00,44.9,43.6,29.88,South,188,1.0,3.0,95,0.00,,,0.12,VWS V14.01,2013-03-05 20:34:00,
2013-03-05 15:39:00,44.9,43.6,29.88,SSE,155,0.0,4.0,95,0.00,,,0.12,VWS V14.01,2013-03-05 20:39:00,
2013-03-05 15:44:00,45.0,43.7,29.88,SSW,210,1.0,4.0,95,0.00,,,0.12,VWS V14.01,2013-03-05 20:44:00,
2013-03-05 15:49:00,45.1,43.8,29.88,SE,145,0.0,4.0,95,0.00,,,0.12,VWS V14.01,2013-03-05 20:49:00,
2013-03-05 15:54:00,45.2,43.9,29.88,SE,142,0.0,4.0,95,0.00,,,0.12,VWS V14.01,2013-03-05 20:54:00,
2013-03-05 15:59:00,45.3,44.0,29.87,SE,136,0.0,4.0,95,0.00,,,0.12,VWS V14.01,2013-03-05 20:59:00,
2013-03-05 16:04:00,45.4,44.0,29.86,East,84,0.0,3.0,95,0.00,,,0.12,VWS V14.01,2013-03-05 21:04:00,
2013-03-05 16:09:00,45.3,44.0,29.85,SE,142,2.0,3.0,95,0.00,,,0.12,VWS V14.01,2013-03-05 21:09:00,
2013-03-05 16:14:00,45.3,44.0,29.85,ESE,118,0.0,3.0,95,0.00,,,0.12,VWS V14.01,2013-03-05 21:14:00,
2013-03-05 16:19:00,45.5,44.2,29.85,ESE,117,1.0,3.0,95,0.00,,,0.12,VWS V14.01,2013-03-05 21:19:00,
2013-03-05 16:24:00,45.4,44.0,29.86,WSW,240,0.0,3.0,95,0.00,,,0.12,VWS V14.01,2013-03-05 21:24:00,
2013-03-05 16:29:00,45.4,44.0,29.85,SE,137,0.0,5.0,95,0.01,,,0.13,VWS V14.01,2013-03-05 21:29:00,
2013-03-05 16:34:00,45.5,44.2,29.85,SE,145,1.0,3.0,95,0.01,,,0.13,VWS V14.01,2013-03-05 21:34:00,
2013-03-05 16:39:00,45.5,44.2,29.85,ESE,119,0.0,3.0,95,0.01,,,0.13,VWS V14.01,2013-03-05 21:39:00,
2013-03-05 16:44:00,45.6,44.2,29.85,SSE,168,0.0,3.0,95,0.01,,,0.13,VWS V14.01,2013-03-05 21:44:00,
2013-03-05 16:49:00,45.6,44.2,29.85,East,87,1.0,3.0,95,0.01,,,0.13,VWS V14.01,2013-03-05 21:49:00,
2013-03-05 16:54:00,45.5,44.2,29.85,SE,134,0.0,3.0,95,0.01,,,0.13,VWS V14.01,2013-03-05 21:54:00,
2013-03-05 16:59:00,45.5,44.2,29.86,South,175,1.0,3.0,95,0.01,,,0.13,VWS V14.01,2013-03-05 21:59:00,
2013-03-05 17:04:00,45.6,44.2,29.85,SW,218,1.0,1.0,95,0.01,,,0.13,VWS V14.01,2013-03-05 22:04:00,
2013-03-05 17:09:00,45.5,44.2,29.85,SSE,155,0.0,1.0,95,0.01,,,0.13,VWS V14.01,2013-03-05 22:09:00,
2013-03-05 17:14:00,45.5,44.2,29.84,ESE,103,1.0,1.0,95,0.01,,,0.13,VWS V14.01,2013-03-05 22:14:00,
2013-03-05 17:19:00,45.5,44.4,29.84,East,92,2.0,2.0,96,0.01,,,0.13,VWS V14.01,2013-03-05 22:19:00,
2013-03-05 17:24:00,45.4,44.3,29.84,ENE,76,0.0,2.0,96,0.01,,,0.13,VWS V14.01,2013-03-05 22:24:00,
2013-03-05 17:29:00,45.3,44.2,29.83,East,93,1.0,3.0,96,0.01,,,0.13,VWS V14.01,2013-03-05 22:29:00,
2013-03-05 17:34:00,45.3,44.2,29.83,East,97,3.0,5.0,96,0.00,,,0.13,VWS V14.01,2013-03-05 22:34:00,
2013-03-05 17:39:00,45.2,44.1,29.83,East,92,1.0,5.0,96,0.00,,,0.13,VWS V14.01,2013-03-05 22:39:00,
2013-03-05 17:44:00,45.2,44.1,29.83,East,99,2.0,5.0,96,0.00,,,0.13,VWS V14.01,2013-03-05 22:44:00,
2013-03-05 17:49:00,45.1,44.0,29.82,East,82,3.0,5.0,96,0.00,,,0.13,VWS V14.01,2013-03-05 22:49:00,
2013-03-05 17:54:00,45.0,43.9,29.82,East,96,2.0,5.0,96,0.00,,,0.13,VWS V14.01,2013-03-05 22:54:00,
2013-03-05 17:59:00,45.0,43.9,29.82,ESE,115,2.0,5.0,96,0.00,,,0.13,VWS V14.01,2013-03-05 22:59:00,
2013-03-05 18:04:00,44.9,43.8,29.82,East,90,1.0,4.0,96,0.00,,,0.13,VWS V14.01,2013-03-05 23:04:00,
2013-03-05 18:09:00,44.9,43.8,29.81,ESE,118,0.0,6.0,96,0.00,,,0.13,VWS V14.01,2013-03-05 23:09:00,
2013-03-05 18:14:00,44.9,43.8,29.81,ENE,78,2.0,6.0,96,0.00,,,0.13,VWS V14.01,2013-03-05 23:14:00,
2013-03-05 18:19:00,44.9,43.8,29.82,East,82,2.0,6.0,96,0.00,,,0.13,VWS V14.01,2013-03-05 23:19:00,
2013-03-05 18:24:00,44.9,43.8,29.82,ESE,110,1.0,6.0,96,0.00,,,0.13,VWS V14.01,2013-03-05 23:24:00,
2013-03-05 18:29:00,44.9,43.8,29.81,East,87,5.0,6.0,96,0.00,,,0.13,VWS V14.01,2013-03-05 23:29:00,
2013-03-05 18:34:00,44.9,43.8,29.80,East,101,2.0,7.0,96,0.00,,,0.13,VWS V14.01,2013-03-05 23:34:00,
2013-03-05 18:39:00,44.8,43.7,29.80,East,101,6.0,7.0,96,0.00,,,0.13,VWS V14.01,2013-03-05 23:39:00,
2013-03-05 18:44:00,44.8,43.7,29.79,ESE,104,5.0,9.0,96,0.00,,,0.13,VWS V14.01,2013-03-05 23:44:00,
2013-03-05 18:49:00,44.8,43.7,29.78,East,95,5.0,10.0,96,0.00,,,0.13,VWS V14.01,2013-03-05 23:49:00,
2013-03-05 18:54:00,44.7,43.6,29.78,SSE,148,2.0,10.0,96,0.00,,,0.13,VWS V14.01,2013-03-05 23:54:00,
2013-03-05 18:59:00,44.8,44.0,29.77,ESE,110,5.0,10.0,97,0.00,,,0.13,VWS V14.01,2013-03-05 23:59:00,
2013-03-05 19:04:00,44.7,43.9,29.77,NE,49,2.0,7.0,97,0.00,,,0.13,VWS V14.01,2013-03-06 00:04:00,
2013-03-05 19:09:00,44.7,43.9,29.77,ESE,109,3.0,9.0,97,0.00,,,0.13,VWS V14.01,2013-03-06 00:09:00,
2013-03-05 19:14:00,44.7,43.9,29.77,SE,127,6.0,9.0,97,0.00,,,0.13,VWS V14.01,2013-03-06 00:14:00,
2013-03-05 19:19:00,44.7,43.9,29.77,ESE,111,4.0,10.0,97,0.00,,,0.13,VWS V14.01,2013-03-06 00:19:00,
2013-03-05 19:24:00,44.7,43.9,29.76,East,86,3.0,10.0,97,0.00,,,0.13,VWS V14.01,2013-03-06 00:24:00,
2013-03-05 19:29:00,44.7,43.9,29.76,ESE,106,2.0,10.0,97,0.00,,,0.13,VWS V14.01,2013-03-06 00:29:00,
2013-03-05 19:34:00,44.8,43.7,29.75,SE,126,4.0,5.0,96,0.00,,,0.13,VWS V14.01,2013-03-06 00:34:00,
2013-03-05 19:39:00,44.8,43.7,29.75,ESE,115,7.0,12.0,96,0.00,,,0.13,VWS V14.01,2013-03-06 00:39:00,
2013-03-05 19:44:00,44.8,43.7,29.74,East,100,9.0,13.0,96,0.00,,,0.13,VWS V14.01,2013-03-06 00:44:00,
2013-03-05 19:49:00,44.8,43.7,29.74,ESE,117,1.0,13.0,96,0.00,,,0.13,VWS V14.01,2013-03-06 00:49:00,
2013-03-05 19:54:00,44.8,43.7,29.72,ESE,103,4.0,13.0,96,0.00,,,0.13,VWS V14.01,2013-03-06 00:54:00,
2013-03-05 19:59:00,44.8,43.7,29.71,East,100,7.0,17.0,96,0.00,,,0.13,VWS V14.01,2013-03-06 00:59:00,
2013-03-05 20:04:00,44.8,43.7,29.70,East,96,5.0,9.0,96,0.00,,,0.13,VWS V14.01,2013-03-06 01:04:00,
2013-03-05 20:09:00,44.7,43.6,29.71,East,100,3.0,11.0,96,0.00,,,0.13,VWS V14.01,2013-03-06 01:09:00,
2013-03-05 20:14:00,44.7,43.6,29.71,East,88,8.0,11.0,96,0.00,,,0.13,VWS V14.01,2013-03-06 01:14:00,
2013-03-05 20:19:00,44.7,43.6,29.70,East,79,3.0,11.0,96,0.00,,,0.13,VWS V14.01,2013-03-06 01:19:00,
2013-03-05 20:24:00,44.7,43.6,29.70,ESE,111,7.0,11.0,96,0.00,,,0.13,VWS V14.01,2013-03-06 01:24:00,
2013-03-05 20:29:00,44.7,43.6,29.68,South,175,2.0,11.0,96,0.00,,,0.13,VWS V14.01,2013-03-06 01:29:00,
2013-03-05 20:34:00,44.8,43.7,29.68,SE,126,3.0,8.0,96,0.00,,,0.13,VWS V14.01,2013-03-06 01:34:00,
2013-03-05 20:39:00,44.8,43.5,29.68,ESE,106,5.0,12.0,95,0.00,,,0.13,VWS V14.01,2013-03-06 01:39:00,
2013-03-05 20:44:00,44.8,43.5,29.67,SE,126,10.0,12.0,95,0.00,,,0.13,VWS V14.01,2013-03-06 01:44:00,
2013-03-05 20:49:00,44.9,43.6,29.67,SSE,150,0.0,12.0,95,0.00,,,0.13,VWS V14.01,2013-03-06 01:49:00,
2013-03-05 20:54:00,44.9,43.6,29.68,ESE,105,5.0,12.0,95,0.00,,,0.13,VWS V14.01,2013-03-06 01:54:00,
2013-03-05 20:59:00,45.0,43.7,29.67,SE,132,8.0,12.0,95,0.00,,,0.13,VWS V14.01,2013-03-06 01:59:00,
2013-03-05 21:04:00,45.0,43.7,29.67,SE,132,5.0,13.0,95,0.00,,,0.13,VWS V14.01,2013-03-06 02:04:00,
2013-03-05 21:09:00,45.1,43.5,29.66,SSE,164,1.0,13.0,94,0.00,,,0.13,VWS V14.01,2013-03-06 02:09:00,
2013-03-05 21:14:00,45.1,43.5,29.66,ENE,78,3.0,13.0,94,0.01,,,0.14,VWS V14.01,2013-03-06 02:14:00,
2013-03-05 21:19:00,45.1,43.5,29.66,SSW,202,7.0,13.0,94,0.02,,,0.15,VWS V14.01,2013-03-06 02:19:00,
2013-03-05 21:24:00,45.0,43.4,29.66,South,171,2.0,13.0,94,0.03,,,0.16,VWS V14.01,2013-03-06 02:24:00,
2013-03-05 21:29:00,44.9,43.6,29.65,East,82,3.0,13.0,95,0.04,,,0.17,VWS V14.01,2013-03-06 02:29:00,
2013-03-05 21:34:00,44.8,43.5,29.64,SE,141,1.0,10.0,95,0.05,,,0.18,VWS V14.01,2013-03-06 02:34:00,
2013-03-05 21:39:00,44.7,43.4,29.64,ENE,73,7.0,10.0,95,0.05,,,0.18,VWS V14.01,2013-03-06 02:39:00,
2013-03-05 21:44:00,44.7,43.4,29.63,SSE,155,2.0,10.0,95,0.06,,,0.19,VWS V14.01,2013-03-06 02:44:00,
2013-03-05 21:49:00,44.7,43.6,29.62,East,99,3.0,10.0,96,0.06,,,0.19,VWS V14.01,2013-03-06 02:49:00,
2013-03-05 21:54:00,44.7,43.6,29.62,SE,134,3.0,10.0,96,0.06,,,0.19,VWS V14.01,2013-03-06 02:54:00,
2013-03-05 21:59:00,44.8,43.7,29.62,ESE,112,1.0,10.0,96,0.07,,,0.20,VWS V14.01,2013-03-06 02:59:00,
2013-03-05 22:04:00,44.8,43.7,29.61,South,172,4.0,7.0,96,0.08,,,0.21,VWS V14.01,2013-03-06 03:04:00,
2013-03-05 22:09:00,44.9,43.8,29.60,SE,136,2.0,7.0,96,0.11,,,0.24,VWS V14.01,2013-03-06 03:09:00,
2013-03-05 22:14:00,44.9,43.8,29.60,ESE,117,3.0,7.0,96,0.12,,,0.25,VWS V14.01,2013-03-06 03:14:00,
2013-03-05 22:19:00,44.9,43.8,29.60,East,96,2.0,7.0,96,0.14,,,0.27,VWS V14.01,2013-03-06 03:19:00,
2013-03-05 22:24:00,45.0,43.9,29.60,East,94,1.0,7.0,96,0.17,,,0.30,VWS V14.01,2013-03-06 03:24:00,
2013-03-05 22:29:00,45.0,43.9,29.60,SE,142,1.0,7.0,96,0.17,,,0.30,VWS V14.01,2013-03-06 03:29:00,
2013-03-05 22:34:00,45.1,44.3,29.61,West,267,3.0,5.0,97,0.14,,,0.31,VWS V14.01,2013-03-06 03:34:00,
2013-03-05 22:39:00,45.3,44.5,29.62,NNE,22,2.0,5.0,97,0.16,,,0.33,VWS V14.01,2013-03-06 03:39:00,
2013-03-05 22:44:00,45.4,44.6,29.63,NW,323,5.0,6.0,97,0.17,,,0.34,VWS V14.01,2013-03-06 03:44:00,
2013-03-05 22:49:00,45.4,44.6,29.62,SE,135,2.0,6.0,97,0.17,,,0.34,VWS V14.01,2013-03-06 03:49:00,
2013-03-05 22:54:00,45.6,44.8,29.61,WSW,241,3.0,6.0,97,0.17,,,0.34,VWS V14.01,2013-03-06 03:54:00,
2013-03-05 22:59:00,45.6,44.8,29.60,SE,140,1.0,6.0,97,0.17,,,0.34,VWS V14.01,2013-03-06 03:59:00,
2013-03-05 23:04:00,45.6,44.8,29.59,SE,140,1.0,2.0,97,0.14,,,0.34,VWS V14.01,2013-03-06 04:04:00,
2013-03-05 23:09:00,45.5,44.7,29.59,ESE,104,4.0,4.0,97,0.14,,,0.34,VWS V14.01,2013-03-06 04:09:00,
2013-03-05 23:14:00,45.7,44.9,29.59,SSE,156,0.0,4.0,97,0.14,,,0.34,VWS V14.01,2013-03-06 04:14:00,
2013-03-05 23:19:00,45.6,44.8,29.58,SE,136,1.0,4.0,97,0.14,,,0.34,VWS V14.01,2013-03-06 04:19:00,
2013-03-05 23:24:00,45.5,44.7,29.58,SSE,150,0.0,4.0,97,0.14,,,0.34,VWS V14.01,2013-03-06 04:24:00,
2013-03-05 23:29:00,45.3,44.5,29.57,ESE,103,0.0,4.0,97,0.14,,,0.34,VWS V14.01,2013-03-06 04:29:00,
2013-03-05 23:34:00,45.2,44.4,29.57,ESE,119,1.0,1.0,97,0.03,,,0.34,VWS V14.01,2013-03-06 04:34:00,
2013-03-05 23:39:00,45.0,44.2,29.56,SE,132,1.0,1.0,97,0.03,,,0.34,VWS V14.01,2013-03-06 04:39:00,
2013-03-05 23:44:00,44.9,44.1,29.56,SE,140,1.0,1.0,97,0.03,,,0.34,VWS V14.01,2013-03-06 04:44:00,
2013-03-05 23:49:00,44.8,44.0,29.56,SE,145,1.0,2.0,97,0.03,,,0.34,VWS V14.01,2013-03-06 04:49:00,
2013-03-05 23:54:00,44.8,44.0,29.55,SSE,163,1.0,3.0,97,0.03,,,0.34,VWS V14.01,2013-03-06 04:54:00,
2013-03-05 23:59:00,44.7,43.9,29.55,SSE,148,0.0,3.0,97,0.03,,,0.34,VWS V14.01,2013-03-06 04:59:00,